User: anonymous   Login
Location: Saint-Usage
(47.1052°N, 5.2587°E)
Time: 20:26:42
(UTC+01:00)
Language:

SPROUT - Orbit

View from above orbital plane
View from above orbital plane
View from above satellite
View from above satellite

Ground track
Ground track

The orbit data is extracted from the following two-line orbital elements,

1 39770U 14029E   21339.54059144  .00001965  00000-0  21499-3 0  9991
2 39770  97.9302  90.8493 0008809  13.6810 346.4652 14.88967231408792
Epoch (UTC): 05 December 2021 12:58:27
Eccentricity: 0.0008809
inclination: 97.9302°
perigee height: 595 km
apogee height: 607 km
right ascension of ascending node: 90.8493°
argument of perigee: 13.6810°
revolutions per day: 14.88967231
mean anomaly at epoch: 346.4652°
orbit number at epoch: 40879

The dashed part of the orbit path shows where the satellite is in the earth's shadow,  

DLR